User: anonymous   Login
Location: Unspecified
(0.0000°N, 0.0000°E)
Time: 00:08:47
(UTC+00:00)
Language:

Afristar - Orbit

View from above orbital plane
View from above orbital plane
View from above satellite
View from above satellite

Ground track
Ground track

The orbit data is extracted from the following two-line orbital elements,

1 25515U 98063A   18112.62691240 +.00000034 +00000-0 +00000-0 0  9994
2 25515 003.9349 067.4303 0006207 304.9791 285.8918 00.99006556071075
Epoch (UTC): 22 April 2018 15:02:45
Eccentricity: 0.0006207
inclination: 3.9349°
perigee height: 36118 km
apogee height: 36171 km
right ascension of ascending node: 67.4303°
argument of perigee: 304.9791°
revolutions per day: 0.99006556
mean anomaly at epoch: 285.8918°
orbit number at epoch: 7107

The dashed part of the orbit path shows where the satellite is in the earth's shadow,  

DLR